Weather History for KORB - December, 2012

Change the Weather History Date:

Saturday, December 1, 2012

  Actual Average Record
Temperature  
Mean Temperature 30 °F -  
Max Temperature 33 °F 25 °F 44 °F (1999)
Min Temperature 28 °F 12 °F -14 °F (2014)
Degree Days  
Heating Degree Days 34    
Moisture  
Dew Point 30 °F    
Average Humidity 91    
Maximum Humidity 93    
Minimum Humidity 86    
Precipitation  
Precipitation 0.00 in - - ()
Sea Level Pressure  
Sea Level Pressure 29.76 in    
Wind  
Wind Speed 7 mph (SSE)    
Max Wind Speed 18 mph    
Max Gust Speed 26 mph    
Visibility 2 miles    
Events Fog    
Averages and records for this station are not official NWS values.
T = Trace of Precipitation, MM = Missing Value Source: NWS Daily Summary

Daily Weather History Graph

Daily Weather History Graph

Search for Another Location

Airport or City:

Trip Planner

Search our weather history database for the weather conditions in past years. The results will help you decide how hot, cold, wet, or windy it might be!

Date:

Astronomy

Dec. 01, 2012 Rise Set
Actual Time 7:40 AM CST 4:20 PM CST
Civil Twilight 7:05 AM CST 4:55 PM CST
Nautical Twilight 6:26 AM CST 5:34 PM CST
Astronomical Twilight 5:48 AM CST 6:12 PM CST
Moon 7:14 PM CST (12/1) 9:51 AM CST (12/1)
Length of Visible Light 9h 50m
Length of Day
8h 39m
Waning Gibbous, 91% of the Moon is Illuminated
Dec 1
Waning Gibbous
Dec 6
Last Quarter
Dec 13
New
Dec 19
First Quarter
Dec 28
Full

Hourly Weather History & Observations

Time (CST) Temp. Windchill Dew Point Humidity Pressure Visibility Wind Dir Wind Speed Gust Speed Precip Events Conditions
12:13 AM 28.4 °F 19.7 °F 26.6 °F 93% 29.95 in 10.0 mi SSE 9.2 mph - N/A   Mostly Cloudy
12:33 AM 28.4 °F 21.2 °F 26.6 °F 93% 29.94 in 10.0 mi SE 6.9 mph 16.1 mph N/A   Mostly Cloudy
12:53 AM 28.4 °F 19.1 °F 26.6 °F 93% 29.93 in 7.0 mi SSE 10.4 mph - N/A   Mostly Cloudy
1:13 AM 28.4 °F 20.4 °F 26.6 °F 93% 29.92 in 7.0 mi SSE 8.1 mph 17.3 mph N/A   Mostly Cloudy
1:33 AM 28.4 °F 20.4 °F 26.6 °F 93% 29.92 in 7.0 mi SSE 8.1 mph - N/A   Scattered Clouds
1:53 AM 28.4 °F 19.7 °F 26.6 °F 93% 29.91 in 7.0 mi SSE 9.2 mph - N/A   Scattered Clouds
2:14 AM 28.4 °F 21.2 °F 26.6 °F 93% 29.91 in 7.0 mi SSE 6.9 mph - N/A   Scattered Clouds
2:33 AM 28.4 °F 19.1 °F 26.6 °F 93% 29.91 in 7.0 mi SSE 10.4 mph - N/A   Scattered Clouds
2:53 AM 28.4 °F 19.7 °F 26.6 °F 93% 29.90 in 7.0 mi SSE 9.2 mph - N/A   Scattered Clouds
3:33 AM 30.2 °F 21.9 °F 26.6 °F 86% 29.87 in 5.0 mi SSE 9.2 mph - N/A   Scattered Clouds
3:53 AM 30.2 °F 20.8 °F 26.6 °F 86% 29.85 in 5.0 mi SE 11.5 mph 18.4 mph N/A   Scattered Clouds
4:13 AM 30.2 °F 21.9 °F 28.4 °F 93% 29.85 in 5.0 mi SSE 9.2 mph - N/A   Scattered Clouds
4:33 AM 30.2 °F 21.3 °F 28.4 °F 93% 29.83 in 5.0 mi SSE 10.4 mph 16.1 mph N/A   Scattered Clouds
5:14 AM 30.2 °F 20.2 °F 28.4 °F 93% 29.80 in 4.0 mi SSE 12.7 mph 18.4 mph N/A   Mostly Cloudy
5:33 AM 30.2 °F 21.9 °F 28.4 °F 93% 29.78 in 4.0 mi SSE 9.2 mph 19.6 mph N/A   Mostly Cloudy
5:53 AM 30.2 °F 18.9 °F 28.4 °F 93% 29.78 in 4.0 mi SSE 16.1 mph 23.0 mph N/A   Mostly Cloudy
6:13 AM 30.2 °F 19.3 °F 28.4 °F 93% 29.77 in 4.0 mi SSE 15.0 mph 26.5 mph N/A   Mostly Cloudy
6:33 AM 32.0 °F 20.5 °F 30.2 °F 93% 29.76 in 4.0 mi SSE 18.4 mph 23.0 mph N/A   Scattered Clouds
6:53 AM 32.0 °F 21.6 °F 30.2 °F 93% 29.76 in 4.0 mi SSE 15.0 mph 21.9 mph N/A   Scattered Clouds
7:13 AM 32.0 °F 22.5 °F 30.2 °F 93% 29.75 in 4.0 mi SSE 12.7 mph 21.9 mph N/A   Scattered Clouds
7:34 AM 32.0 °F 22.1 °F 30.2 °F 93% 29.75 in 4.0 mi SSE 13.8 mph 18.4 mph N/A   Scattered Clouds
7:53 AM 32.0 °F 24.8 °F 30.2 °F 93% 29.74 in 4.0 mi SSE 8.1 mph 17.3 mph N/A   Scattered Clouds
8:13 AM 32.0 °F 24.2 °F 30.2 °F 93% 29.75 in 2.5 mi South 9.2 mph 18.4 mph N/A   Scattered Clouds
8:33 AM 33.8 °F 27.7 °F 30.2 °F 87% 29.76 in 2.5 mi South 6.9 mph - N/A   Scattered Clouds
8:53 AM 33.8 °F 27.0 °F 30.2 °F 87% 29.75 in 2.5 mi South 8.1 mph 18.4 mph N/A   Scattered Clouds
9:13 AM 33.8 °F 27.7 °F 30.2 °F 87% 29.75 in 2.5 mi South 6.9 mph - N/A   Mostly Cloudy
9:33 AM 33.8 °F 27.7 °F 30.2 °F 87% 29.75 in 2.0 mi South 6.9 mph - N/A   Mostly Cloudy
9:53 AM 33.8 °F 26.4 °F 30.2 °F 87% 29.75 in 2.0 mi South 9.2 mph 16.1 mph N/A   Mostly Cloudy
10:13 AM 33.8 °F 29.6 °F 30.2 °F 87% 29.75 in 1.8 mi South 4.6 mph - N/A   Overcast
10:34 AM 33.8 °F 27.0 °F 30.2 °F 87% 29.74 in 1.5 mi SSE 8.1 mph - N/A   Overcast
10:53 AM 33.8 °F 27.0 °F 30.2 °F 87% 29.74 in 1.2 mi SSE 8.1 mph 16.1 mph N/A   Overcast
11:14 AM 33.8 °F 30.8 °F 30.2 °F 87% 29.72 in 1.0 mi SSE 3.5 mph - N/A   Overcast
11:33 AM 33.8 °F 28.6 °F 30.2 °F 87% 29.72 in 1.0 mi SSE 5.8 mph - N/A   Overcast
11:54 AM 33.8 °F 27.7 °F 30.2 °F 87% 29.71 in 1.0 mi SSE 6.9 mph - N/A   Overcast
12:13 PM 33.8 °F 29.6 °F 30.2 °F 87% 29.71 in 1.0 mi SSE 4.6 mph - N/A   Overcast
12:33 PM 33.8 °F - 30.2 °F 87% 29.70 in 1.0 mi Calm Calm - N/A   Overcast
12:53 PM 33.8 °F 29.6 °F 30.2 °F 87% 29.70 in 1.2 mi SSE 4.6 mph - N/A   Overcast
1:13 PM 33.8 °F - 30.2 °F 87% 29.69 in 1.0 mi Calm Calm - N/A   Overcast
1:34 PM 33.8 °F - 32.0 °F 93% 29.68 in 1.0 mi Calm Calm - N/A   Overcast
1:53 PM 33.8 °F 30.8 °F 32.0 °F 93% 29.68 in 1.0 mi SSE 3.5 mph - N/A   Overcast
2:13 PM 33.8 °F - 32.0 °F 93% 29.68 in 1.0 mi Calm Calm - N/A   Overcast
2:33 PM 33.8 °F - 32.0 °F 93% 29.68 in 1.0 mi Calm Calm - N/A   Overcast
2:53 PM 33.8 °F - 32.0 °F 93% 29.68 in 0.8 mi Calm Calm - N/A   Overcast
3:13 PM 33.8 °F - 32.0 °F 93% 29.69 in 0.5 mi Calm Calm - N/A Fog Fog
3:34 PM 33.8 °F - 32.0 °F 93% 29.69 in 0.8 mi Calm Calm - N/A   Overcast
3:53 PM 33.8 °F - 32.0 °F 93% 29.69 in 0.5 mi Calm Calm - N/A Fog Fog
4:13 PM 33.8 °F - 32.0 °F 93% 29.70 in 0.2 mi Calm Calm - N/A Fog Fog
4:33 PM 33.8 °F - 32.0 °F 93% 29.71 in 0.5 mi Calm Calm - N/A Fog Fog
4:53 PM 33.8 °F - 32.0 °F 93% 29.71 in 0.5 mi Calm Calm - N/A Fog Fog
5:13 PM 33.8 °F - 32.0 °F 93% 29.72 in 0.8 mi Calm Calm - N/A   Overcast
5:33 PM 33.8 °F - 30.2 °F 87% 29.71 in 0.5 mi Calm Calm - N/A Fog Fog
5:54 PM 33.8 °F - 30.2 °F 87% 29.72 in 0.5 mi Calm Calm - N/A Fog Fog
6:13 PM 33.8 °F - 30.2 °F 87% 29.73 in 0.2 mi Calm Calm - N/A Fog Fog
6:33 PM 33.8 °F - 30.2 °F 87% 29.73 in 0.5 mi Calm Calm - N/A Fog Fog
6:53 PM 33.8 °F - 30.2 °F 87% 29.73 in 0.8 mi Calm Calm - N/A   Overcast
7:14 PM 33.8 °F - 30.2 °F 87% 29.72 in 0.8 mi Calm Calm - N/A   Overcast
7:34 PM 32.0 °F - 30.2 °F 93% 29.72 in 0.5 mi Calm Calm - N/A Fog Fog
7:53 PM 32.0 °F - 30.2 °F 93% 29.73 in 0.5 mi Calm Calm - N/A Fog Fog
8:13 PM 33.8 °F - 30.2 °F 87% 29.73 in 0.5 mi Calm Calm - N/A Fog Fog
8:33 PM 33.8 °F - 30.2 °F 87% 29.74 in 0.5 mi Calm Calm - N/A Fog Fog
8:53 PM 33.8 °F - 30.2 °F 87% 29.74 in 0.5 mi Calm Calm - N/A Fog Fog
9:33 PM 33.8 °F - 32.0 °F 93% 29.76 in 0.5 mi Calm Calm - N/A Fog Fog
9:53 PM 33.8 °F - 32.0 °F 93% 29.76 in 0.5 mi Calm Calm - N/A Fog Fog
10:13 PM 33.8 °F - 32.0 °F 93% 29.77 in 0.8 mi Calm Calm - N/A   Overcast
10:33 PM 33.8 °F - 32.0 °F 93% 29.77 in 1.0 mi Calm Calm - N/A   Overcast
10:53 PM 33.8 °F - 32.0 °F 93% 29.77 in 1.5 mi Calm Calm - N/A   Mostly Cloudy
11:13 PM 33.8 °F - 32.0 °F 93% 29.78 in 2.0 mi Calm Calm - N/A   Mist
11:33 PM 33.8 °F - 30.2 °F 87% 29.78 in 1.5 mi Calm Calm - N/A   Mist
11:53 PM 33.8 °F - 30.2 °F 87% 29.79 in 1.5 mi Calm Calm - N/A   Mist